Hourly Data Report for July 24, 2012

HALIFAX STANFIELD INT'L A
NOVA SCOTIA

44°52'48.060" N
63°30'00.050" W
145.40 m
8202250
71395
YHZ

Download Data

Hourly Data (July 2012)
Hourly Data Report for July 24, 2012
TIME
LST
Temp Definition
°C
Dew Point Definition
°C
Rel Hum Definition
%
Precip. Amount Definition
mm

Wind Dir Definition
10's deg

Wind Spd Definition
km/h
Visibility Definition
km
Stn Press Definition
kPa
Hmdx Definition


Wind Chill Definition


Weather Definition


00:00 15.9 15.1 95   18 22 24.1 99.62     Mainly Clear
01:00 15.5 15.0 97   18 17 24.1 99.57     Mainly Clear
02:00 15.7 15.2 97   17 15 24.1 99.50     Mostly Cloudy
03:00 16.5 15.8 96   18 20 24.1 99.47     Cloudy
04:00 16.4 15.9 97   18 15 24.1 99.39     Cloudy
05:00 16.3 15.9 97   18 19 24.1 99.32     Mostly Cloudy
06:00 16.8 16.3 97   17 20 24.1 99.24     Mainly Clear
07:00 18.1 16.9 93   17 22 24.1 99.14     Mostly Cloudy
08:00 19.8 17.2 85   18 30 24.1 99.08     Mostly Cloudy
09:00 21.5 17.7 79   18 28 24.1 98.98 27   Mostly Cloudy
10:00 21.5 17.4 77   19 28 24.1 98.93 27   Mostly Cloudy
11:00 20.9 17.4 80   19 24 24.1 98.85 26   Cloudy
12:00 19.1 18.3 95   19 26 16.1 98.77     Rain Showers
13:00 19.3 18.1 93   18 30 16.1 98.67     Rain Showers
14:00 19.0 18.8 99   18 26 9.7 98.62     Rain Showers, Fog
15:00 18.7 18.7 100   18 24 12.9 98.56     Rain Showers
16:00 18.7 18.7 100   19 28 24.1 98.53     Rain Showers
17:00 19.1 18.9 99   20 30 24.1 98.47     Cloudy
18:00 19.0 19.0 100   18 22 12.9 98.39     Rain Showers
19:00 19.1 19.1 100   18 19 1.2 98.37     Drizzle, Fog
20:00 19.1 19.1 100   18 17 2.0 98.29     Drizzle, Fog
21:00 19.0 19.0 100   19 20 2.0 98.28     Drizzle, Fog
22:00 19.0 19.0 100   21 15 1.6 98.25     Drizzle, Fog
23:00 18.8 18.8 100   21 11 2.4 98.20     Rain Showers, Fog

Notes on Data Quality.

Legend

  • E = Estimated
  • M = Missing
  • NA = Not Available*
  • [empty] = Indicates an unobserved value
Date modified: